Location: �perlecques
(50.8057°N, 2.1521°E)
Time: 10:07:15
(UTC+00:00)

Vanguard 1 Rocket - Pass Details

Date: 06 August 2021
Orbit: 650 x 4226 km, 34.3° (Epoch: 17 September)

Event Time Altitude Azimuth Distance (km) Brightness Sun altitude
Rises 05:35:17 0° 188° (S) 8,413 12.1 9.4°
Reaches altitude 10° 05:44:29 10° 173° (S) 7,401 12.0 10.8°
Maximum altitude 05:58:14 18° 140° (SE) 6,233 12.1 12.9°
Drops below altitude 10° 06:09:37 10° 106° (ESE) 6,106 13.1 14.7°
Sets 06:15:44 0° 89° (E) 6,520 13.6 15.7°
